[[{"header":{"parameterUnit":"m.s-1","parameterCategory":1,"la1":30.2991,"la2":30.254,"lo1":-89.0895,"lo2":-89.0444,"dy":0.0017,"dx":0.0017,"nx":28,"ny":28,"refTime":"2026-02-08T09:00:00:Z","depth":0,"parameterNumber":2,"parameterNumberName":"U-component_of_WINDS"},"data":[0,0,0,0,0,0,0,0,0,0,0,0,0,0,0,0,0,0,0,0,0,0,0,0,0,0,0,0,0,0,0,0,0,0,0,0,0,0,0,0,0,0,0,0,0,0,0,0,0,0,0,0,0,0,0,0,0,0,-0.8991,-0.8991,0,-0.9007,-0.9007,-0.9007,-0.9046,-0.9047,-0.9048,-0.9049,-0.9064,-0.9063,-0.9063,0,0,0,0,0,0,0,0,0,0,0,0,0,-0.8994,-0.8994,-0.8991,-0.8991,-0.8992,-0.9007,-0.9007,-0.9007,-0.9046,-0.9047,-0.9048,-0.9049,-0.9064,-0.9063,-0.9063,0,0,0,0,0,0,0,0,0,0,0,0,0,-0.8999,-0.8994,-0.8991,-0.9013,-0.9015,-0.9007,-0.9007,-0.9007,-0.9046,-0.9047,-0.9048,-0.9049,-0.9064,-0.9063,-0.9063,-0.9035,0,0,-0.9061,-0.9061,0,0,0,0,0,0,0,0,-0.8999,-0.8999,-0.9009,-0.9011,-0.9014,-0.9026,-0.9014,-0.9016,-0.9045,-0.9034,-0.9049,-0.905,-0.905,-0.9051,-0.9051,-0.9035,-0.9036,-0.9061,-0.9061,-0.9061,-0.9061,0,0,0,0,0,0,0,-0.8999,-0.8999,-0.8997,-0.9009,-0.9012,-0.9021,-0.9024,-0.9014,-0.9035,-0.9035,-0.9038,-0.9039,-0.9051,-0.9051,-0.9052,-0.9036,-0.9061,-0.9061,-0.906,-0.906,-0.8998,-0.8997,0,0,0,0,0,0,-0.8995,-0.8998,-0.8997,-0.8998,-0.9009,-0.902,-0.9023,-0.9021,-0.9035,-0.9039,-0.9038,-0.9041,-0.9052,-0.9052,-0.9052,-0.902,-0.9061,-0.906,-0.906,-0.8999,-0.8998,-0.8996,0,0,0,0,0,0,-0.8995,-0.8995,-0.8996,-0.8999,-0.9,-0.9019,-0.9016,-0.902,-0.902,-0.9037,-0.9041,-0.9034,-0.9053,-0.9053,-0.9039,-0.9021,-0.906,-0.9059,-0.9001,-0.8999,-0.8997,-0.8954,0,0,0,0,0,0,-0.8995,-0.8995,-0.8984,-0.8998,-0.8999,-0.8983,-0.9015,-0.902,-0.9019,-0.9023,-0.9035,-0.9038,-0.9054,-0.9039,-0.9038,-0.9021,-0.9059,-0.9002,-0.9,-0.8997,-0.8957,-0.8951,-0.8946,0,0,0,0,0,-0.8995,-0.8972,-0.8984,-0.8983,-0.8987,-0.8981,-0.8982,-0.9001,-0.9018,-0.9007,-0.9018,-0.9038,-0.9023,-0.9038,-0.9037,-0.9019,-0.9004,-0.9001,-0.8998,-0.896,-0.8952,-0.8946,0,0,0,0,0,0,-0.8955,-0.8974,-0.8987,-0.8968,-0.8973,-0.8988,-0.8976,-0.8992,-0.8992,-0.8996,-0.9019,-0.9021,-0.9003,-0.901,-0.9026,-0.8992,-0.9016,-0.9013,-0.8988,-0.8981,-0.8975,-0.8974,-0.9059,0,0,0,0,0,-0.8944,-0.8938,-0.8955,-0.8936,-0.8938,-0.8956,-0.8954,-0.8968,-0.8974,-0.8976,-0.8987,-0.8991,-0.8988,-0.8985,-0.8983,-0.8959,-0.8962,-0.8946,-0.894,-0.8935,-0.8932,-0.8919,-0.8912,-0.8986,-0.8986,-0.8986,0,0,-0.8921,-0.893,-0.8925,-0.8928,-0.8934,-0.8927,-0.8958,-0.8949,-0.8944,-0.8975,-0.8962,-0.897,-0.8976,-0.8957,-0.8949,-0.8962,-0.8912,-0.8931,-0.8927,-0.8927,-0.8915,-0.8908,-0.8902,-0.8984,-0.8985,-0.8985,0,0,-0.8875,-0.8882,-0.8867,-0.8872,-0.8879,-0.8892,-0.8888,-0.8901,-0.8907,-0.8894,-0.8917,-0.8911,-0.8905,-0.8909,-0.891,-0.8865,-0.8882,-0.8863,-0.8833,-0.882,-0.8814,-0.8809,-0.8792,-0.8786,-0.886,-0.886,-0.886,0,-0.8845,-0.8836,-0.8857,-0.8847,-0.8847,-0.8875,-0.8859,-0.8863,-0.8869,-0.8869,-0.8883,-0.8875,-0.8882,-0.8863,-0.8852,-0.8852,-0.8848,-0.8862,-0.8813,-0.8808,-0.8804,-0.8788,-0.8782,-0.8858,-0.8858,-0.8858,-0.8858,0,-0.8799,-0.8792,-0.8779,-0.8784,-0.8783,-0.877,-0.8788,-0.8785,-0.8799,-0.8809,-0.8796,-0.8804,-0.8804,-0.8801,-0.8815,-0.8784,-0.8792,-0.8809,-0.8834,-0.8794,-0.878,-0.8774,-0.8854,-0.8855,-0.8856,-0.8856,0,0,-0.8728,-0.8745,-0.874,-0.8742,-0.8753,-0.8748,-0.8736,-0.8736,-0.8732,-0.8735,-0.8725,-0.8719,-0.8735,-0.8736,-0.8751,-0.874,-0.8702,-0.8759,-0.8759,-0.8747,-0.8668,-0.8655,-0.8647,-0.8714,-0.8713,-0.8712,-0.8668,0,-0.8685,-0.8666,-0.8684,-0.8661,-0.8654,-0.8681,-0.867,-0.8675,-0.8685,-0.868,-0.8691,-0.8685,-0.8708,-0.8708,-0.8699,-0.8709,-0.8687,-0.8713,-0.8705,-0.8704,-0.8702,-0.864,-0.8626,-0.8583,-0.8662,-0.8661,-0.8661,0,-0.8631,-0.8632,-0.8609,-0.862,-0.8618,-0.8608,-0.8609,-0.8605,-0.8611,-0.8618,-0.8619,-0.8637,-0.8625,-0.865,-0.8634,-0.8651,-0.8649,-0.8654,-0.8653,-0.8652,-0.8679,-0.8637,-0.857,-0.8563,-0.8652,-0.8653,-0.8653,0,-0.8581,-0.8577,-0.8562,-0.8563,-0.8576,-0.8569,-0.8574,-0.8581,-0.858,-0.858,-0.858,-0.8579,-0.8578,-0.8577,-0.8594,-0.861,-0.8575,-0.8602,-0.8581,-0.858,-0.8572,-0.8572,-0.8503,-0.8572,-0.8572,-0.8572,-0.8572,0,-0.8531,-0.8515,-0.8539,-0.853,-0.8513,-0.8534,-0.8516,-0.8524,-0.853,-0.8523,-0.8546,-0.8538,-0.856,-0.8555,-0.8568,-0.8552,-0.8552,-0.8557,-0.8561,-0.8555,-0.8554,-0.8553,-0.8557,-0.857,-0.8571,-0.8571,-0.8571,0,-0.8472,-0.8488,-0.8473,-0.8487,-0.849,-0.8476,-0.8488,-0.8479,-0.849,-0.848,-0.8479,-0.8496,-0.8491,-0.8507,-0.8504,-0.8513,-0.849,-0.8499,-0.8488,-0.849,-0.8468,-0.847,-0.8395,-0.8386,-0.8461,-0.8461,-0.846,0,-0.8438,-0.8427,-0.8439,-0.8435,-0.8439,-0.8433,-0.8432,-0.8452,-0.8449,-0.8455,-0.8445,-0.8442,-0.844,-0.843,-0.8442,-0.844,-0.8448,-0.8422,-0.8448,-0.8442,-0.8447,-0.8447,-0.8446,-0.8417,-0.8416,-0.8415,-0.8415,0,-0.8377,-0.8385,-0.8382,-0.8381,-0.8379,-0.8379,-0.8381,-0.8377,-0.8399,-0.8394,-0.8389,-0.8388,-0.8385,-0.8381,-0.8381,-0.8386,-0.8403,-0.8406,-0.8401,-0.8395,-0.8389,-0.8391,-0.8473,-0.8408,-0.8409,-0.8409,-0.8409,-0.841,-0.8329,-0.832,-0.8327,-0.8322,-0.8326,-0.8327,-0.832,-0.833,-0.8326,-0.8325,-0.8337,-0.8329,-0.8334,-0.8337,-0.834,-0.8333,-0.8345,-0.8338,-0.8336,-0.8334,-0.833,-0.839,-0.8334,-0.8334,-0.8334,-0.8334,-0.8334,0,-0.8268,-0.8274,-0.8269,-0.8271,-0.8268,-0.8285,-0.8288,-0.8284,-0.8276,-0.828,-0.8278,-0.8271,-0.8267,-0.8279,-0.8276,-0.8269,-0.8277,-0.8268,-0.8268,-0.8269,-0.832,-0.8324,-0.8261,-0.8261,-0.8261,-0.8261,-0.8261,-0.8261,-0.8236,-0.8221,-0.823,-0.8216,-0.8222,-0.8214,-0.8214,-0.8216,-0.8219,-0.821,-0.8207,-0.8215,-0.8221,-0.8219,-0.8216,-0.822,-0.8217,-0.8205,-0.8211,-0.8258,-0.8265,-0.8272,-0.8276,-0.8205,-0.8205,-0.8161,-0.8161,-0.816]},{"header":{"parameterUnit":"m.s-1","parameterCategory":1,"la1":30.2991,"la2":30.254,"lo1":-89.0895,"lo2":-89.0444,"dy":0.0017,"dx":0.0017,"nx":28,"ny":28,"refTime":"2026-02-08T09:00:00:Z","depth":0,"parameterNumber":3,"parameterNumberName":"V-component_of_WINDS"},"data":[0,0,0,0,0,0,0,0,0,0,0,0,0,0,0,0,0,0,0,0,0,0,0,0,0,0,0,0,0,0,0,0,0,0,0,0,0,0,0,0,0,0,0,0,0,0,0,0,0,0,0,0,0,0,0,0,0,0,-1.9241,-1.9242,0,-1.9317,-1.9318,-1.9319,-1.9351,-1.9351,-1.9351,-1.9351,-1.9427,-1.9429,-1.9431,0,0,0,0,0,0,0,0,0,0,0,0,0,-1.9124,-1.9126,-1.9241,-1.9242,-1.9243,-1.9317,-1.9318,-1.9319,-1.9351,-1.9351,-1.9351,-1.935,-1.9426,-1.9428,-1.9431,0,0,0,0,0,0,0,0,0,0,0,0,0,-1.9185,-1.9127,-1.9241,-1.9268,-1.9271,-1.9317,-1.9318,-1.9319,-1.9351,-1.9351,-1.9351,-1.935,-1.9425,-1.9428,-1.9431,-1.9455,0,0,-1.9441,-1.9443,0,0,0,0,0,0,0,0,-1.9181,-1.9189,-1.9263,-1.9266,-1.927,-1.9324,-1.9305,-1.9365,-1.9351,-1.9321,-1.9351,-1.935,-1.9393,-1.9399,-1.9413,-1.9459,-1.9462,-1.9442,-1.9443,-1.9445,-1.9446,0,0,0,0,0,0,0,-1.9177,-1.9186,-1.9271,-1.9264,-1.9268,-1.9276,-1.9285,-1.9316,-1.9357,-1.9323,-1.9326,-1.9334,-1.9394,-1.941,-1.9415,-1.9463,-1.9441,-1.9444,-1.9446,-1.9448,-1.9534,-1.9534,0,0,0,0,0,0,-1.9169,-1.9182,-1.9269,-1.9273,-1.9224,-1.9279,-1.9288,-1.9307,-1.9356,-1.9364,-1.9334,-1.9336,-1.9404,-1.9411,-1.9418,-1.945,-1.9445,-1.9448,-1.945,-1.9534,-1.9534,-1.9534,0,0,0,0,0,0,-1.9166,-1.9176,-1.9266,-1.9229,-1.9241,-1.9281,-1.9302,-1.9309,-1.9324,-1.9365,-1.9372,-1.9343,-1.9405,-1.9413,-1.9446,-1.9453,-1.9449,-1.9452,-1.9533,-1.9534,-1.9534,-1.9514,0,0,0,0,0,0,-1.9163,-1.9175,-1.9184,-1.9229,-1.9243,-1.9292,-1.9302,-1.931,-1.933,-1.9332,-1.9375,-1.9382,-1.9405,-1.9441,-1.9449,-1.9458,-1.9455,-1.9533,-1.9533,-1.9534,-1.9514,-1.9514,-1.9513,0,0,0,0,0,-1.9158,-1.9175,-1.9184,-1.9195,-1.9255,-1.9293,-1.9301,-1.9328,-1.933,-1.934,-1.9367,-1.938,-1.9451,-1.9444,-1.9454,-1.9463,-1.9532,-1.9533,-1.9534,-1.9514,-1.9514,-1.9513,0,0,0,0,0,0,-1.9129,-1.9181,-1.9192,-1.9224,-1.9254,-1.9298,-1.9311,-1.9326,-1.9356,-1.9356,-1.9388,-1.9398,-1.9428,-1.9449,-1.944,-1.949,-1.9493,-1.9496,-1.9475,-1.9475,-1.9474,-1.9469,-1.9457,0,0,0,0,0,-1.9126,-1.9153,-1.9197,-1.922,-1.9235,-1.927,-1.9288,-1.9306,-1.9338,-1.9351,-1.938,-1.941,-1.944,-1.9458,-1.9488,-1.9518,-1.9528,-1.9529,-1.9528,-1.9528,-1.953,-1.9549,-1.955,-1.9537,-1.9537,-1.9537,0,0,-1.9121,-1.9152,-1.9167,-1.9215,-1.9241,-1.9268,-1.9281,-1.9308,-1.9329,-1.9355,-1.9388,-1.9411,-1.9447,-1.9479,-1.9494,-1.9497,-1.9536,-1.9529,-1.9528,-1.953,-1.955,-1.9551,-1.9552,-1.9538,-1.9538,-1.9537,0,0,-1.9124,-1.9151,-1.9174,-1.92,-1.9239,-1.9263,-1.9268,-1.9311,-1.9327,-1.9361,-1.9382,-1.9407,-1.9456,-1.9482,-1.9501,-1.9517,-1.9531,-1.9526,-1.9523,-1.9542,-1.9543,-1.9544,-1.955,-1.9552,-1.9527,-1.9527,-1.9527,0,-1.9112,-1.9154,-1.9184,-1.9211,-1.9232,-1.9258,-1.9283,-1.9306,-1.9352,-1.9366,-1.9368,-1.9433,-1.9459,-1.9498,-1.9502,-1.9516,-1.9524,-1.9521,-1.954,-1.9541,-1.9543,-1.955,-1.9552,-1.9527,-1.9527,-1.9527,-1.9527,0,-1.9138,-1.9167,-1.9181,-1.9226,-1.9249,-1.9274,-1.9308,-1.9327,-1.9344,-1.9368,-1.9403,-1.9436,-1.9473,-1.9483,-1.9499,-1.9525,-1.9526,-1.9534,-1.9538,-1.9543,-1.955,-1.9552,-1.9525,-1.9526,-1.9526,-1.9526,0,0,-1.9124,-1.9187,-1.9191,-1.9213,-1.9259,-1.9282,-1.9309,-1.9346,-1.9362,-1.9394,-1.9417,-1.946,-1.9468,-1.949,-1.951,-1.9526,-1.9538,-1.9532,-1.9534,-1.9533,-1.9569,-1.9563,-1.9566,-1.9548,-1.9548,-1.9549,-1.9567,0,-1.9134,-1.9184,-1.9213,-1.9251,-1.9279,-1.9305,-1.9329,-1.936,-1.9383,-1.941,-1.9436,-1.9466,-1.9474,-1.9488,-1.9505,-1.9533,-1.9546,-1.9532,-1.9571,-1.9572,-1.9561,-1.9569,-1.9562,-1.9577,-1.9569,-1.957,-1.957,0,-1.9152,-1.9185,-1.9226,-1.9271,-1.9283,-1.9304,-1.9341,-1.9367,-1.9403,-1.9419,-1.9445,-1.9465,-1.9495,-1.9497,-1.954,-1.953,-1.9548,-1.9564,-1.9565,-1.957,-1.9571,-1.9574,-1.9583,-1.9585,-1.9574,-1.9574,-1.9574,0,-1.9139,-1.9193,-1.9225,-1.9242,-1.9295,-1.9309,-1.9332,-1.9368,-1.9389,-1.9421,-1.9436,-1.9471,-1.949,-1.9517,-1.9547,-1.9545,-1.9587,-1.9591,-1.9602,-1.9601,-1.9609,-1.9608,-1.9621,-1.962,-1.962,-1.962,-1.962,0,-1.9147,-1.9172,-1.922,-1.9239,-1.9268,-1.9301,-1.9329,-1.9353,-1.9385,-1.9411,-1.9436,-1.9459,-1.9496,-1.9524,-1.9548,-1.958,-1.9589,-1.9603,-1.9609,-1.9601,-1.9599,-1.9613,-1.9612,-1.962,-1.962,-1.962,-1.962,0,-1.9137,-1.917,-1.9207,-1.9254,-1.9267,-1.9286,-1.9327,-1.9347,-1.9373,-1.9405,-1.9414,-1.9454,-1.9488,-1.9521,-1.9566,-1.9582,-1.9615,-1.9623,-1.9603,-1.9606,-1.9615,-1.9614,-1.9637,-1.9643,-1.9638,-1.9638,-1.9638,0,-1.914,-1.916,-1.921,-1.9229,-1.9251,-1.9282,-1.9304,-1.9338,-1.936,-1.9404,-1.9419,-1.9456,-1.9487,-1.9541,-1.9574,-1.961,-1.9619,-1.9624,-1.9624,-1.9616,-1.962,-1.9618,-1.9621,-1.9624,-1.9624,-1.9623,-1.9623,0,-1.9142,-1.9158,-1.919,-1.9227,-1.9254,-1.9285,-1.9316,-1.9331,-1.9371,-1.9394,-1.9431,-1.9455,-1.9503,-1.9539,-1.9579,-1.9602,-1.962,-1.9624,-1.9628,-1.962,-1.9608,-1.9615,-1.9602,-1.9623,-1.9623,-1.9623,-1.9623,-1.9623,-1.9139,-1.9159,-1.9198,-1.9232,-1.926,-1.929,-1.9312,-1.9341,-1.9372,-1.9414,-1.9432,-1.9469,-1.9507,-1.9562,-1.9586,-1.9616,-1.9619,-1.9625,-1.9627,-1.9628,-1.9627,-1.9604,-1.9623,-1.9623,-1.9623,-1.9623,-1.9623,0,-1.9144,-1.9171,-1.9202,-1.9247,-1.9274,-1.9289,-1.9326,-1.9348,-1.938,-1.9414,-1.9445,-1.9487,-1.9524,-1.956,-1.9598,-1.9615,-1.9624,-1.9624,-1.9623,-1.9629,-1.9621,-1.9614,-1.9616,-1.9616,-1.9616,-1.9616,-1.9616,-1.9616,-1.9149,-1.9183,-1.9204,-1.9253,-1.928,-1.9317,-1.9337,-1.9365,-1.9392,-1.9439,-1.9469,-1.9493,-1.9529,-1.957,-1.9604,-1.9614,-1.9627,-1.9625,-1.9637,-1.9629,-1.9629,-1.9629,-1.9623,-1.9627,-1.9627,-1.9643,-1.9643,-1.9643]}]]